Hourly Data Report for July 17, 2016

OTTAWA INTL A
ONTARIO

45°19'00.000" N
75°40'00.000" W
114.90 m
6106001
71628
YOW

Download Data

Hourly Data (July 2016)
Hourly Data Report for July 17, 2016
TIME
LST
Temp Definition
°C
Dew Point Definition
°C
Rel Hum Definition
%
Precip. Amount Definition
mm

Wind Dir Definition
10's deg

Wind Spd Definition
km/h
Visibility Definition
km
Stn Press Definition
kPa
Hmdx Definition


Wind Chill Definition


Weather Definition


00:00 17.5 16.2 92   17 8 24.1 100.54     LegendNANA
01:00 17.3 15.8 91   17 8 24.1 100.52     Cloudy
02:00 17.4 15.9 91   23 8 24.1 100.53     LegendNANA
03:00 17.1 15.8 92   19 6 24.1 100.52     LegendNANA
04:00 16.9 15.8 93   21 5 24.1 100.54     Mostly Cloudy
05:00 16.9 15.9 94   23 9 24.1 100.59     LegendNANA
06:00 16.9 15.4 91   27 9 24.1 100.63     LegendNANA
07:00 19.5 15.8 79   24 6 24.1 100.68     Mainly Clear
08:00 21.0 14.3 65   26 11 24.1 100.69 25   LegendNANA
09:00 21.8 14.1 61   31 5 24.1 100.65 25   LegendNANA
10:00 22.2 13.7 58   26 12 24.1 100.65 25   Mainly Clear
11:00 24.7 12.8 47   24 21 24.1 100.69 27   LegendNANA
12:00 25.3 14.3 50   28 17 24.1 100.62 29   LegendNANA
13:00 25.7 12.0 42   26 13 24.1 100.56 28   Mainly Clear
14:00 26.7 13.0 42   21 13 24.1 100.52 29   LegendNANA
15:00 26.5 12.0 40   24 17 24.1 100.49 29   LegendNANA
16:00 26.5 12.4 41   22 17 24.1 100.42 29   Mostly Cloudy
17:00 25.4 11.8 42   20 16 24.1 100.40 28   LegendNANA
18:00 24.3 13.4 50   19 9 24.1 100.40 27   LegendNANA
19:00 23.1 14.3 57   19 17 24.1 100.36 27   Mostly Cloudy
20:00 21.4 14.4 64   18 9 24.1 100.31 25   LegendNANA
21:00 20.1 14.3 69   18 10 24.1 100.30     LegendNANA
22:00 20.2 14.2 68   18 10 24.1 100.26     Cloudy
23:00 19.7 14.2 70   16 12 24.1 100.15     LegendNANA

Notes on Data Quality.

Legend

  • E = Estimated
  • M = Missing
  • NA = Not Available*
  • [empty] = Indicates an unobserved value
Date modified: